Location: Proctor
(47.8934°N, 114.3048°W)
Time: 23:49:32
(UTC+00:00)

JY1SAT - Visible Passes

Search period start: 27 June 2022 00:00
Search period end: 07 July 2022 00:00
Orbit: 566 x 585 km, 97.6° (Epoch: 27 June)

Date Brightness Start Highest point End Pass type
(mag) Time Alt. Az. Time Alt. Az. Time Alt. Az.
27 Jun ? 05:34:18 12° SSW 05:37:53 38° W 05:41:47 10° NNW visible
28 Jun ? 05:37:58 11° SSW 05:41:32 34° W 05:45:21 10° NNW visible
29 Jun ? 05:41:38 11° SSW 05:45:11 32° W 05:48:55 10° NNW visible
30 Jun ? 05:45:17 11° SSW 05:48:49 29° W 05:52:29 10° NNW visible
01 Jul ? 05:48:57 10° SSW 05:52:27 27° W 05:56:01 10° NW visible
02 Jul ? 04:17:03 10° SE 04:20:48 34° ENE 04:24:34 10° N visible
02 Jul ? 05:52:40 10° SSW 05:56:06 25° W 05:59:33 10° NW visible
03 Jul ? 04:20:34 10° SE 04:24:23 37° ENE 04:28:13 10° N visible
03 Jul ? 05:56:26 10° SSW 05:59:44 23° W 06:03:05 10° NW visible
04 Jul ? 04:24:06 10° SE 04:27:58 40° ENE 04:31:52 10° N visible
04 Jul ? 06:00:12 10° SW 06:03:22 21° W 06:06:34 10° NW visible
05 Jul ? 04:27:38 10° SE 04:31:34 43° ENE 04:35:31 10° N visible
05 Jul ? 06:03:59 10° SW 06:07:01 19° W 06:10:03 10° NW visible
06 Jul ? 04:31:11 10° SE 04:35:09 47° ENE 04:39:09 10° N visible
06 Jul ? 06:07:47 10° SW 06:10:39 18° W 06:13:32 10° NW visible
